Home   Weather   Township of Fairfield   Past weeks
Flag for USA

Past Weather in Township of Fairfield, Missouri, USA — Yesterday and Last 2 Weeks

Now
61 °F

Sunny.


Feels Like: 61 °F
Forecast: 59 / 36 °F
Wind: 6 mph from South

Location: Kansas City Downtown Airport

Current Time: Dec 5, 2019 at 2:35:26 pm

Latest Report: Dec 5, 2019 at 1:54 pm


Visibility: 10 mi

Pressure: 29.84 "Hg

Humidity: 38%

Dew Point: 35 °F

Location of Township of FairfieldLocation

Past Weather in Township of Fairfield — Graph

°F

Township of Fairfield Temperature Yesterday

Maximum temperature yesterday: 60 °F (at 2:54 pm)
Minimum temperature yesterday: 32 °F (at 6:54 am)
Average temperature yesterday: 43 °F

High & Low Weather Summary for the Past Weeks

 TemperatureHumidityPressure
High68 °F (Nov 20, 12:54 pm)100% (Nov 26, 8:54 pm)30.52 "Hg (Nov 26, 8:54 pm)
Low25 °F (Dec 2, 5:54 am)32% (Nov 24, 2:54 pm)29.33 "Hg (Nov 26, 6:54 pm)
Average41 °F69%29.92 "Hg
* Reported Nov 20 12:54 pm — Dec 5 12:57 pm, Township of Fairfield. Weather by CustomWeather, © 2019

Note: Actual official high and low records may vary slightly from our data, if they occured in-between our weather recording intervals... More about our weather records

Township of Fairfield Weather History for the Previous 24 Hours

Scroll right to see more
 ConditionsComfort  
Time TempWeatherWind HumidityBarometerVisibility
12:57 pm
Thu, Dec 5
57 °FPassing clouds.6 mph46%29.86 "Hg10 mi
11:54 am56 °FHaze.5 mph46%29.91 "Hg3 mi
10:54 am50 °FSunny.3 mph57%29.94 "Hg10 mi
9:54 am44 °FSunny.3 mph65%29.96 "Hg10 mi
8:54 am40 °FSunny.3 mph73%29.96 "Hg10 mi
7:54 am33 °FFog.No wind88%29.96 "Hg4 mi
6:54 am34 °FClear.No wind85%29.95 "Hg10 mi
5:54 am32 °FClear.No wind88%29.95 "Hg10 mi
4:54 am34 °FClear.3 mph85%29.95 "Hg10 mi
3:54 am33 °FClear.No wind85%29.95 "Hg10 mi
2:54 am34 °FClear.No wind88%29.97 "Hg10 mi
1:54 am33 °FClear.No wind85%29.97 "Hg10 mi
12:54 am34 °FClear.No wind85%29.97 "Hg10 mi
11:54 pm
Wed, Dec 4
34 °FClear.No wind88%29.97 "Hg10 mi
10:54 pm36 °FClear.No wind79%29.97 "Hg10 mi
9:54 pm36 °FClear.No wind79%29.98 "Hg10 mi
8:54 pm40 °FClear.No wind70%29.97 "Hg10 mi
7:54 pm43 °FClear.No wind62%29.97 "Hg10 mi
6:54 pm49 °FClear.No wind50%29.97 "Hg10 mi
5:54 pm49 °FClear.3 mph48%29.97 "Hg10 mi
4:54 pm53 °FSunny.3 mph39%29.95 "Hg10 mi
3:54 pm58 °FSunny.3 mph33%29.95 "Hg10 mi
2:54 pm60 °FSunny.5 mph32%29.93 "Hg10 mi
Weather by CustomWeather, © 2019

See weather overview

Advertising